STARLINK-38191, 100246

Orbit data source: Space-Track

STARLINK-38191, 100246 is a payload satellite owned by SpaceX/Seattle (US) in SSO that was launched on Sat, 08 Aug 2026 UTC launched from the Air Force Western Test Range (AFWTR). Payload-class satellites include a variety of spacecraft equipped with specific instruments for various scientific and technological missions. These include communications satellites like Starlink; space stations such as the ISS; scientific satellites like the Hubble; Earth observation satellites from companies like Planet Labs, Umbra, and HawkEye 360; GPS; miniature CubeSats for education and research; and military/defense satellites.

Loading next visibility...
Identifier
100246, 2026-181A
Orbit
SSO
Country
Flag of USUS
Related business
Manufacturer
SpaceX/Seattle
Mission
Operational spacecraft
Bus & Motor
STARLINK V2MO, Unknown motor
Mass
575 kg wet, ~530 kg dry
Launch date (UTC)
2026-08-08 (1 month ago)
Launch vehicle
Unknown
Launch site
Air Force Western Test Range (AFWTR)
Object type
Payload
Rocket body
Debris
Shape & HBR
BOX + PAN, 17.7 m
Radar Cross Section
RCS unknown

Expand to show TLE details & history
Last TLE update: 7 hours ago

TLE from 7 hours ago
0 STARLINK-38191
1 A0246U 26181A   26249.58684716  .00161333  00000-0  10596-2 0  9998
2 A0246  97.2835 292.3940 0000691  53.9382 306.1947 15.75247650  5718
Epoch: 2026-09-06T14:05Z
TLE epoch observation values (Epoch: 2026-09-06T14:05:03.594Z)
Latitude
-0.00005°
Longitude
95.4492°
Altitude
346.821 km
Speed
7.701 km/s
True Right ascension
19h 29m 34s
True Declination
0° 00' 00"
Sunlit
Object was in full shadow at epoch
Visualization orbit readout
Latitude
Unknown
Longitude
Unknown
Altitude
Unknown
Speed
Unknown
Apparent Right ascension
Unknown
Apparent Declination
Unknown
Sunlit
N/A
Visualization observer readout
Local Sidereal Time
13:06:53
Azimuth
Unknown
Elevation
Unknown
Doppler factor
Unknown
Orbital elements
Apogee altitude
341.278 km
Perigee altitude
340.35 km
Semi-major axis
6,718.951 km
Eccentricity
0.00007
Inclination
97.2835°
RAAN
292.394°
Arg. of periapsis
53.9382°
True anomaly
306.18831°
Mean anomaly
306.1947°
Eccentric anomaly
306.1915°
Mean motion
3.94086 °/min
Orbital period
91.35 mins
BSTAR
0.0010596
Loading maneuver chart data...
Computing Atmospheric mass density...
Loading historical data...
Loading historical data...
Loading historical data...
Loading historical data...
Loading historical data...
Loading historical data...
Loading historical data...

Documentation

Showing up to 5 results
|